Time,TemperatureF,DewpointF,PressureIn,WindDirection,WindDirectionDegrees,WindSpeedMPH,WindSpeedGustMPH,Humidity,HourlyPrecipIn,Conditions,Clouds,dailyrainin,SoftwareType,DateUTC
2013-06-07 00:04:00,52.3,41.7,29.39,SSW,202,0.0,0.0,67,0.00,CLR,,0.00,WeatherDisplay:10.37,2013-06-07 06:04:00,
2013-06-07 00:09:00,52.0,41.4,29.39,NNW,338,0.0,0.0,67,0.00,CLR,,0.00,WeatherDisplay:10.37,2013-06-07 06:09:00,
2013-06-07 00:14:00,52.0,41.4,29.39,North,0,0.0,0.0,67,0.00,CLR,,0.00,WeatherDisplay:10.37,2013-06-07 06:14:00,
2013-06-07 00:19:00,51.6,41.0,29.39,North,0,0.0,0.0,67,0.00,CLR,,0.00,WeatherDisplay:10.37,2013-06-07 06:19:00,
2013-06-07 00:24:00,51.4,40.8,29.39,North,0,0.0,0.0,67,0.00,CLR,,0.00,WeatherDisplay:10.37,2013-06-07 06:24:00,
2013-06-07 00:29:00,51.3,41.1,29.39,North,0,0.0,0.0,68,0.00,CLR,,0.00,WeatherDisplay:10.37,2013-06-07 06:29:00,
2013-06-07 00:34:00,51.1,40.9,29.39,NNE,22,0.0,0.0,68,0.00,CLR,,0.00,WeatherDisplay:10.37,2013-06-07 06:34:00,
2013-06-07 00:39:00,50.9,40.7,29.39,NNE,22,0.0,0.0,68,0.00,CLR,,0.00,WeatherDisplay:10.37,2013-06-07 06:39:00,
2013-06-07 00:44:00,50.7,40.5,29.39,North,0,0.0,0.0,68,0.00,CLR,,0.00,WeatherDisplay:10.37,2013-06-07 06:44:00,
2013-06-07 00:49:00,50.5,40.4,29.39,NNE,22,0.0,0.0,68,0.00,CLR,,0.00,WeatherDisplay:10.37,2013-06-07 06:49:00,
2013-06-07 00:54:00,50.5,40.7,29.39,NNE,22,0.0,0.0,69,0.00,CLR,,0.00,WeatherDisplay:10.37,2013-06-07 06:54:00,
2013-06-07 00:59:00,50.2,40.4,29.41,NE,45,0.0,0.0,69,0.00,CLR,,0.00,WeatherDisplay:10.37,2013-06-07 06:59:00,
2013-06-07 01:04:00,50.0,40.2,29.41,NNE,22,0.0,0.0,69,0.00,CLR,,0.00,WeatherDisplay:10.37,2013-06-07 07:04:00,
2013-06-07 01:09:00,49.8,40.1,29.41,NNE,22,0.0,0.0,69,0.00,CLR,,0.00,WeatherDisplay:10.37,2013-06-07 07:09:00,
2013-06-07 01:14:00,49.8,40.1,29.41,ENE,68,0.0,0.0,69,0.00,CLR,,0.00,WeatherDisplay:10.37,2013-06-07 07:14:00,
2013-06-07 01:19:00,49.5,39.7,29.39,NE,45,0.0,0.0,69,0.00,CLR,,0.00,WeatherDisplay:10.37,2013-06-07 07:19:00,
2013-06-07 01:24:00,49.3,39.5,29.39,NE,45,0.0,0.0,69,0.00,CLR,,0.00,WeatherDisplay:10.37,2013-06-07 07:24:00,
2013-06-07 01:29:00,49.3,39.5,29.39,NE,45,0.0,0.0,69,0.00,CLR,,0.00,WeatherDisplay:10.37,2013-06-07 07:29:00,
2013-06-07 01:34:00,49.1,39.7,29.39,North,0,0.0,0.0,70,0.00,CLR,,0.00,WeatherDisplay:10.37,2013-06-07 07:34:00,
2013-06-07 01:39:00,48.7,39.4,29.38,NNE,22,0.0,0.0,70,0.00,CLR,,0.00,WeatherDisplay:10.37,2013-06-07 07:39:00,
2013-06-07 01:44:00,48.6,39.2,29.38,North,0,0.0,0.0,70,0.00,CLR,,0.00,WeatherDisplay:10.37,2013-06-07 07:44:00,
2013-06-07 01:49:00,48.7,39.4,29.38,North,0,0.0,0.0,70,0.00,CLR,,0.00,WeatherDisplay:10.37,2013-06-07 07:49:00,
2013-06-07 01:54:00,48.4,39.0,29.38,North,0,0.0,0.0,70,0.00,CLR,,0.00,WeatherDisplay:10.37,2013-06-07 07:54:00,
2013-06-07 01:59:00,48.4,39.0,29.38,North,0,0.0,0.0,70,0.00,CLR,,0.00,WeatherDisplay:10.37,2013-06-07 07:59:00,
2013-06-07 02:04:00,48.2,39.2,29.38,North,0,0.0,0.0,71,0.00,CLR,,0.00,WeatherDisplay:10.37,2013-06-07 08:04:00,
2013-06-07 02:09:00,48.0,38.7,29.38,ENE,68,0.0,0.0,70,0.00,CLR,,0.00,WeatherDisplay:10.37,2013-06-07 08:09:00,
2013-06-07 02:14:00,48.0,39.1,29.38,North,0,0.0,0.0,71,0.00,CLR,,0.00,WeatherDisplay:10.37,2013-06-07 08:14:00,
2013-06-07 02:19:00,47.8,38.9,29.38,NE,45,0.0,0.0,71,0.00,CLR,,0.00,WeatherDisplay:10.37,2013-06-07 08:19:00,
2013-06-07 02:24:00,47.7,38.7,29.38,North,0,0.0,0.0,71,0.00,CLR,,0.00,WeatherDisplay:10.37,2013-06-07 08:24:00,
2013-06-07 02:29:00,47.7,38.7,29.38,North,0,0.0,0.0,71,0.00,CLR,,0.00,WeatherDisplay:10.37,2013-06-07 08:29:00,
2013-06-07 02:34:00,47.7,38.7,29.38,ENE,68,0.0,0.0,71,0.00,CLR,,0.00,WeatherDisplay:10.37,2013-06-07 08:34:00,
2013-06-07 02:39:00,47.1,38.2,29.38,North,0,0.0,0.0,71,0.00,CLR,,0.00,WeatherDisplay:10.37,2013-06-07 08:39:00,
2013-06-07 02:44:00,47.1,38.6,29.38,NNE,22,0.0,0.0,72,0.00,CLR,,0.00,WeatherDisplay:10.37,2013-06-07 08:44:00,
2013-06-07 02:49:00,47.3,38.7,29.38,NNE,22,0.0,0.0,72,0.00,CLR,,0.00,WeatherDisplay:10.37,2013-06-07 08:49:00,
2013-06-07 02:54:00,47.1,38.6,29.38,NNE,22,0.0,0.0,72,0.00,CLR,,0.00,WeatherDisplay:10.37,2013-06-07 08:54:00,
2013-06-07 02:59:00,46.9,38.4,29.38,North,0,0.0,0.0,72,0.00,CLR,,0.00,WeatherDisplay:10.37,2013-06-07 08:59:00,
2013-06-07 03:04:00,46.8,38.2,29.38,North,0,0.0,0.0,72,0.00,CLR,,0.00,WeatherDisplay:10.37,2013-06-07 09:04:00,
2013-06-07 03:09:00,46.8,38.2,29.38,North,0,0.0,0.0,72,0.00,CLR,,0.00,WeatherDisplay:10.37,2013-06-07 09:09:00,
2013-06-07 03:14:00,46.6,38.0,29.38,North,0,0.0,0.0,72,0.00,CLR,,0.00,WeatherDisplay:10.37,2013-06-07 09:14:00,
2013-06-07 03:19:00,46.4,37.9,29.38,NNE,22,0.0,0.0,72,0.00,CLR,,0.00,WeatherDisplay:10.37,2013-06-07 09:19:00,
2013-06-07 03:24:00,46.4,37.9,29.38,NE,45,0.0,0.0,72,0.00,CLR,,0.00,WeatherDisplay:10.37,2013-06-07 09:24:00,
2013-06-07 03:29:00,46.4,38.2,29.38,North,0,0.0,0.0,73,0.00,CLR,,0.00,WeatherDisplay:10.37,2013-06-07 09:29:00,
2013-06-07 03:34:00,46.4,38.2,29.38,NE,45,0.0,0.0,73,0.00,CLR,,0.00,WeatherDisplay:10.37,2013-06-07 09:34:00,
2013-06-07 03:39:00,46.2,38.0,29.38,North,0,0.0,0.0,73,0.00,CLR,,0.00,WeatherDisplay:10.37,2013-06-07 09:39:00,
2013-06-07 03:44:00,46.2,38.0,29.38,NE,45,0.0,0.0,73,0.00,CLR,,0.00,WeatherDisplay:10.37,2013-06-07 09:44:00,
2013-06-07 03:49:00,46.2,38.0,29.38,SW,225,0.0,0.0,73,0.00,CLR,,0.00,WeatherDisplay:10.37,2013-06-07 09:49:00,
2013-06-07 03:54:00,45.9,37.7,29.38,NE,45,0.0,0.0,73,0.00,CLR,,0.00,WeatherDisplay:10.37,2013-06-07 09:54:00,
2013-06-07 03:59:00,45.7,37.5,29.38,NE,45,0.0,0.0,73,0.00,CLR,,0.00,WeatherDisplay:10.37,2013-06-07 09:59:00,
2013-06-07 04:04:00,45.7,37.5,29.38,ENE,68,0.0,0.0,73,0.00,CLR,,0.00,WeatherDisplay:10.37,2013-06-07 10:04:00,
2013-06-07 04:09:00,45.7,37.9,29.38,NNE,22,0.0,0.0,74,0.00,CLR,,0.00,WeatherDisplay:10.37,2013-06-07 10:09:00,
2013-06-07 04:14:00,45.5,37.7,29.38,SSE,158,0.0,0.0,74,0.00,CLR,,0.00,WeatherDisplay:10.37,2013-06-07 10:14:00,
2013-06-07 04:19:00,45.5,37.7,29.38,North,0,0.0,0.0,74,0.00,CLR,,0.00,WeatherDisplay:10.37,2013-06-07 10:19:00,
2013-06-07 04:24:00,45.3,37.5,29.38,North,0,0.0,0.0,74,0.00,CLR,,0.00,WeatherDisplay:10.37,2013-06-07 10:24:00,
2013-06-07 04:29:00,45.5,37.7,29.38,NE,45,0.0,0.0,74,0.00,CLR,,0.00,WeatherDisplay:10.37,2013-06-07 10:29:00,
2013-06-07 04:34:00,45.1,37.3,29.38,ENE,68,0.0,0.0,74,0.00,CLR,,0.00,WeatherDisplay:10.37,2013-06-07 10:34:00,
2013-06-07 04:39:00,45.1,37.3,29.39,North,0,0.0,0.0,74,0.00,CLR,,0.00,WeatherDisplay:10.37,2013-06-07 10:39:00,
2013-06-07 04:44:00,45.0,37.2,29.39,North,0,0.0,0.0,74,0.00,CLR,,0.00,WeatherDisplay:10.37,2013-06-07 10:44:00,
2013-06-07 04:50:00,45.0,37.5,29.39,NNE,22,0.0,0.0,75,0.00,CLR,,0.00,WeatherDisplay:10.37,2013-06-07 10:50:00,
2013-06-07 04:55:00,45.0,37.5,29.39,NNE,22,0.0,0.0,75,0.00,CLR,,0.00,WeatherDisplay:10.37,2013-06-07 10:55:00,
2013-06-07 05:00:00,45.1,37.7,29.39,NE,45,0.0,0.0,75,0.00,CLR,,0.00,WeatherDisplay:10.37,2013-06-07 11:00:00,
2013-06-07 05:05:00,44.8,37.3,29.39,North,0,0.0,0.0,75,0.00,CLR,,0.00,WeatherDisplay:10.37,2013-06-07 11:05:00,
2013-06-07 05:10:00,44.8,37.3,29.39,NE,45,0.0,0.0,75,0.00,CLR,,0.00,WeatherDisplay:10.37,2013-06-07 11:10:00,
2013-06-07 05:15:00,44.8,37.3,29.39,NW,315,0.0,0.0,75,0.00,CLR,,0.00,WeatherDisplay:10.37,2013-06-07 11:15:00,
2013-06-07 05:20:00,44.8,37.3,29.39,North,0,0.0,0.0,75,0.00,CLR,,0.00,WeatherDisplay:10.37,2013-06-07 11:20:00,
2013-06-07 05:25:00,44.6,37.2,29.39,North,0,0.0,0.0,75,0.00,CLR,,0.00,WeatherDisplay:10.37,2013-06-07 11:25:00,
2013-06-07 05:30:00,44.8,37.3,29.39,NE,45,0.0,0.0,75,0.00,CLR,,0.00,WeatherDisplay:10.37,2013-06-07 11:30:00,
2013-06-07 05:35:00,44.8,37.3,29.39,NE,45,0.0,0.0,75,0.00,CLR,,0.00,WeatherDisplay:10.37,2013-06-07 11:35:00,
2013-06-07 05:40:00,44.8,37.3,29.39,NE,45,0.0,0.0,75,0.00,CLR,,0.00,WeatherDisplay:10.37,2013-06-07 11:40:00,
2013-06-07 05:45:00,44.8,37.3,29.39,North,0,0.0,0.0,75,0.00,CLR,,0.00,WeatherDisplay:10.37,2013-06-07 11:45:00,
2013-06-07 05:50:00,44.8,37.3,29.39,North,0,0.0,0.0,75,0.00,CLR,,0.00,WeatherDisplay:10.37,2013-06-07 11:50:00,
2013-06-07 05:55:00,44.8,37.3,29.39,NNE,22,0.0,0.0,75,0.00,CLR,,0.00,WeatherDisplay:10.37,2013-06-07 11:55:00,
2013-06-07 06:00:00,44.6,37.5,29.39,NNE,22,0.0,0.0,76,0.00,CLR,,0.00,WeatherDisplay:10.37,2013-06-07 12:00:00,
2013-06-07 06:05:00,44.8,37.7,29.39,West,270,0.0,0.0,76,0.00,CLR,,0.00,WeatherDisplay:10.37,2013-06-07 12:05:00,
2013-06-07 06:10:00,44.8,37.7,29.39,West,270,0.0,0.0,76,0.00,CLR,,0.00,WeatherDisplay:10.37,2013-06-07 12:10:00,
2013-06-07 06:15:00,45.1,38.0,29.39,WSW,248,0.0,0.0,76,0.00,CLR,,0.00,WeatherDisplay:10.37,2013-06-07 12:15:00,
2013-06-07 06:20:00,45.7,38.5,29.39,ENE,68,0.0,0.0,76,0.00,CLR,,0.00,WeatherDisplay:10.37,2013-06-07 12:20:00,
2013-06-07 06:25:00,46.0,38.9,29.39,North,0,0.0,0.0,76,0.00,CLR,,0.00,WeatherDisplay:10.37,2013-06-07 12:25:00,
2013-06-07 06:30:00,46.2,39.1,29.39,East,90,0.0,0.0,76,0.00,CLR,,0.00,WeatherDisplay:10.37,2013-06-07 12:30:00,
2013-06-07 06:35:00,46.4,39.2,29.39,NNE,22,0.0,0.0,76,0.00,CLR,,0.00,WeatherDisplay:10.37,2013-06-07 12:35:00,
2013-06-07 06:40:00,47.1,40.3,29.39,NNE,22,0.0,0.0,77,0.00,CLR,,0.00,WeatherDisplay:10.37,2013-06-07 12:40:00,
2013-06-07 06:45:00,48.0,41.2,29.39,NNE,22,0.0,0.0,77,0.00,CLR,,0.00,WeatherDisplay:10.37,2013-06-07 12:45:00,
2013-06-07 06:50:00,48.7,41.8,29.39,NNE,22,0.0,0.0,77,0.00,CLR,,0.00,WeatherDisplay:10.37,2013-06-07 12:50:00,
2013-06-07 06:55:00,49.5,42.2,29.42,WSW,248,0.0,0.0,76,0.00,CLR,,0.00,WeatherDisplay:10.37,2013-06-07 12:55:00,
2013-06-07 07:00:00,50.4,43.4,29.42,SW,225,0.0,0.0,77,0.00,CLR,,0.00,WeatherDisplay:10.37,2013-06-07 13:00:00,
2013-06-07 07:05:00,50.9,43.9,29.42,NE,45,0.0,0.0,77,0.00,CLR,,0.00,WeatherDisplay:10.37,2013-06-07 13:05:00,
2013-06-07 07:10:00,51.3,44.0,29.42,NNW,338,0.0,0.0,76,0.00,CLR,,0.00,WeatherDisplay:10.37,2013-06-07 13:10:00,
2013-06-07 07:15:00,51.4,44.1,29.41,NNW,338,0.0,0.0,76,0.00,CLR,,0.00,WeatherDisplay:10.37,2013-06-07 13:15:00,
2013-06-07 07:20:00,52.0,44.6,29.41,NNW,338,0.0,0.0,76,0.00,CLR,,0.00,WeatherDisplay:10.37,2013-06-07 13:20:00,
2013-06-07 07:25:00,52.3,44.6,29.41,NE,45,0.0,0.0,75,0.00,CLR,,0.00,WeatherDisplay:10.37,2013-06-07 13:25:00,
2013-06-07 07:30:00,52.7,45.0,29.41,North,0,0.0,0.0,75,0.00,CLR,,0.00,WeatherDisplay:10.37,2013-06-07 13:30:00,
2013-06-07 07:35:00,52.7,45.0,29.39,North,0,0.0,0.0,75,0.00,CLR,,0.00,WeatherDisplay:10.37,2013-06-07 13:35:00,
2013-06-07 07:40:00,53.4,45.7,29.39,NNE,22,0.0,0.0,75,0.00,CLR,,0.00,WeatherDisplay:10.37,2013-06-07 13:40:00,
2013-06-07 07:45:00,53.6,45.9,29.39,NNE,22,0.0,0.0,75,0.00,CLR,,0.00,WeatherDisplay:10.37,2013-06-07 13:45:00,
2013-06-07 07:50:00,54.1,46.4,29.39,SSW,202,0.0,0.0,75,0.00,CLR,,0.00,WeatherDisplay:10.37,2013-06-07 13:50:00,
2013-06-07 07:55:00,54.5,46.7,29.39,North,0,0.0,0.0,75,0.00,CLR,,0.00,WeatherDisplay:10.37,2013-06-07 13:55:00,
2013-06-07 08:00:00,55.4,47.6,29.39,North,0,0.0,0.0,75,0.00,CLR,,0.00,WeatherDisplay:10.37,2013-06-07 14:00:00,
2013-06-07 08:05:00,56.3,48.5,29.39,NW,315,0.0,0.0,75,0.00,CLR,,0.00,WeatherDisplay:10.37,2013-06-07 14:05:00,
2013-06-07 08:10:00,56.8,49.0,29.39,North,0,0.0,0.0,75,0.00,CLR,,0.00,WeatherDisplay:10.37,2013-06-07 14:10:00,
2013-06-07 08:15:00,57.6,49.7,29.40,WSW,248,0.0,0.0,75,0.00,CLR,,0.00,WeatherDisplay:10.37,2013-06-07 14:15:00,
2013-06-07 08:20:00,58.3,50.4,29.40,WSW,248,0.0,0.0,75,0.00,CLR,,0.00,WeatherDisplay:10.37,2013-06-07 14:20:00,
2013-06-07 08:25:00,59.2,50.9,29.40,WSW,248,0.0,0.0,74,0.00,CLR,,0.00,WeatherDisplay:10.37,2013-06-07 14:25:00,
2013-06-07 08:30:00,59.9,51.2,29.40,SSW,202,0.0,0.0,73,0.00,CLR,,0.00,WeatherDisplay:10.37,2013-06-07 14:30:00,
2013-06-07 08:35:00,60.6,51.5,29.44,SW,225,0.0,0.0,72,0.00,CLR,,0.00,WeatherDisplay:10.37,2013-06-07 14:35:00,
2013-06-07 08:40:00,61.5,52.0,29.44,WSW,248,0.0,0.0,71,0.00,CLR,,0.00,WeatherDisplay:10.37,2013-06-07 14:40:00,
2013-06-07 08:45:00,62.2,51.9,29.44,SW,225,0.0,0.0,69,0.00,CLR,,0.00,WeatherDisplay:10.37,2013-06-07 14:45:00,
2013-06-07 08:50:00,62.2,51.9,29.44,SSW,202,0.0,0.0,69,0.00,CLR,,0.00,WeatherDisplay:10.37,2013-06-07 14:50:00,
2013-06-07 08:55:00,62.8,52.5,29.42,WSW,248,0.0,0.0,69,0.00,CLR,,0.00,WeatherDisplay:10.37,2013-06-07 14:55:00,
2013-06-07 09:00:00,63.0,52.2,29.42,SSW,202,0.0,0.0,68,0.00,CLR,,0.00,WeatherDisplay:10.37,2013-06-07 15:00:00,
2013-06-07 09:05:00,63.7,52.5,29.42,WSW,248,0.0,0.0,67,0.00,CLR,,0.00,WeatherDisplay:10.37,2013-06-07 15:05:00,
2013-06-07 09:10:00,64.2,53.0,29.42,SSW,202,0.0,0.0,67,0.00,CLR,,0.00,WeatherDisplay:10.37,2013-06-07 15:10:00,
2013-06-07 09:15:00,64.6,53.4,29.43,WSW,248,0.0,0.0,67,0.00,CLR,,0.00,WeatherDisplay:10.37,2013-06-07 15:15:00,
2013-06-07 09:20:00,64.9,53.7,29.43,WNW,292,0.0,0.0,67,0.00,CLR,,0.00,WeatherDisplay:10.37,2013-06-07 15:20:00,
2013-06-07 09:25:00,65.1,53.1,29.43,WNW,292,0.0,0.0,65,0.00,CLR,,0.00,WeatherDisplay:10.37,2013-06-07 15:25:00,
2013-06-07 09:30:00,65.5,53.8,29.43,ENE,68,0.0,0.0,66,0.00,CLR,,0.00,WeatherDisplay:10.37,2013-06-07 15:30:00,
2013-06-07 09:35:00,66.0,54.3,29.44,WSW,248,0.0,0.0,66,0.00,CLR,,0.00,WeatherDisplay:10.37,2013-06-07 15:35:00,
2013-06-07 09:40:00,66.4,54.3,29.44,WSW,248,0.0,0.0,65,0.00,CLR,,0.00,WeatherDisplay:10.37,2013-06-07 15:40:00,
2013-06-07 09:45:00,66.6,53.6,29.44,SW,225,0.0,0.0,63,0.00,CLR,,0.00,WeatherDisplay:10.37,2013-06-07 15:45:00,
2013-06-07 09:50:00,66.6,53.6,29.44,WSW,248,0.0,0.0,63,0.00,CLR,,0.00,WeatherDisplay:10.37,2013-06-07 15:50:00,
2013-06-07 09:55:00,66.6,53.6,29.43,SSW,202,0.0,0.0,63,0.00,CLR,,0.00,WeatherDisplay:10.37,2013-06-07 15:55:00,
2013-06-07 10:00:00,66.7,53.7,29.43,WSW,248,0.0,0.0,63,0.00,CLR,,0.00,WeatherDisplay:10.37,2013-06-07 16:00:00,
2013-06-07 10:05:00,66.9,53.9,29.43,SW,225,0.0,0.0,63,0.00,CLR,,0.00,WeatherDisplay:10.37,2013-06-07 16:05:00,
2013-06-07 10:10:00,67.1,54.1,29.43,West,270,0.0,0.0,63,0.00,CLR,,0.00,WeatherDisplay:10.37,2013-06-07 16:10:00,
2013-06-07 10:15:00,67.1,54.1,29.43,SW,225,0.0,0.0,63,0.00,CLR,,0.00,WeatherDisplay:10.37,2013-06-07 16:15:00,
2013-06-07 10:20:00,67.1,54.1,29.43,SW,225,0.0,0.0,63,0.00,CLR,,0.00,WeatherDisplay:10.37,2013-06-07 16:20:00,
2013-06-07 10:25:00,67.5,54.4,29.43,SSW,202,0.0,0.0,63,0.00,CLR,,0.00,WeatherDisplay:10.37,2013-06-07 16:25:00,
2013-06-07 10:30:00,67.8,54.3,29.43,WSW,248,0.0,0.0,62,0.00,CLR,,0.00,WeatherDisplay:10.37,2013-06-07 16:30:00,
2013-06-07 10:35:00,67.8,54.8,29.42,WSW,248,0.0,0.0,63,0.00,CLR,,0.00,WeatherDisplay:10.37,2013-06-07 16:35:00,
2013-06-07 10:40:00,67.6,54.6,29.42,WSW,248,0.0,0.0,63,0.00,CLR,,0.00,WeatherDisplay:10.37,2013-06-07 16:40:00,
2013-06-07 10:45:00,68.0,54.9,29.42,North,0,0.0,0.0,63,0.00,CLR,,0.00,WeatherDisplay:10.37,2013-06-07 16:45:00,
2013-06-07 10:50:00,69.3,56.1,29.42,North,0,0.0,0.0,63,0.00,CLR,,0.00,WeatherDisplay:10.37,2013-06-07 16:50:00,
2013-06-07 10:55:00,70.0,56.8,29.41,East,90,0.0,0.0,63,0.00,CLR,,0.00,WeatherDisplay:10.37,2013-06-07 16:55:00,
2013-06-07 11:00:00,70.9,56.3,29.41,East,90,0.0,0.0,60,0.00,CLR,,0.00,WeatherDisplay:10.37,2013-06-07 17:00:00,
2013-06-07 11:05:00,71.8,56.2,29.41,NW,315,0.0,0.2,58,0.00,CLR,,0.00,WeatherDisplay:10.37,2013-06-07 17:05:00,
2013-06-07 11:10:00,72.0,55.4,29.41,WSW,248,0.0,0.2,56,0.00,CLR,,0.00,WeatherDisplay:10.37,2013-06-07 17:10:00,
2013-06-07 11:15:00,72.3,55.2,29.42,SSW,202,0.0,0.0,55,0.00,CLR,,0.00,WeatherDisplay:10.37,2013-06-07 17:15:00,
2013-06-07 11:20:00,72.3,53.2,29.42,SSW,202,0.0,0.0,51,0.00,CLR,,0.00,WeatherDisplay:10.37,2013-06-07 17:20:00,
2013-06-07 11:25:00,72.7,53.5,29.42,SW,225,0.0,0.0,51,0.00,CLR,,0.00,WeatherDisplay:10.37,2013-06-07 17:25:00,
2013-06-07 11:30:00,73.0,53.8,29.42,SW,225,0.0,0.0,51,0.00,CLR,,0.00,WeatherDisplay:10.37,2013-06-07 17:30:00,
2013-06-07 11:35:00,73.0,52.7,29.41,SW,225,0.0,0.0,49,0.00,CLR,,0.00,WeatherDisplay:10.37,2013-06-07 17:35:00,
2013-06-07 11:40:00,72.5,52.8,29.41,WSW,248,0.0,0.0,50,0.00,CLR,,0.00,WeatherDisplay:10.37,2013-06-07 17:40:00,
2013-06-07 11:45:00,73.0,53.8,29.41,WNW,292,0.0,0.0,51,0.00,CLR,,0.00,WeatherDisplay:10.37,2013-06-07 17:45:00,
2013-06-07 11:50:00,73.4,54.2,29.41,West,270,0.0,0.0,51,0.00,CLR,,0.00,WeatherDisplay:10.37,2013-06-07 17:50:00,
2013-06-07 11:55:00,73.8,54.5,29.40,NNW,338,0.0,0.0,51,0.00,CLR,,0.00,WeatherDisplay:10.37,2013-06-07 17:55:00,
2013-06-07 12:00:00,73.8,54.5,29.40,WNW,292,0.0,0.0,51,0.00,CLR,,0.00,WeatherDisplay:10.37,2013-06-07 18:00:00,
2013-06-07 12:05:00,74.1,54.8,29.40,NNW,338,0.0,0.0,51,0.00,CLR,,0.00,WeatherDisplay:10.37,2013-06-07 18:05:00,
2013-06-07 12:10:00,74.1,54.8,29.40,NW,315,0.0,0.0,51,0.00,CLR,,0.00,WeatherDisplay:10.37,2013-06-07 18:10:00,
2013-06-07 12:15:00,74.1,54.3,29.39,NW,315,0.0,0.0,50,0.00,CLR,,0.00,WeatherDisplay:10.37,2013-06-07 18:15:00,
2013-06-07 12:20:00,74.7,55.3,29.39,North,0,0.0,0.0,51,0.00,CLR,,0.00,WeatherDisplay:10.37,2013-06-07 18:20:00,
2013-06-07 12:26:00,75.2,55.3,29.39,SW,225,0.0,0.5,50,0.00,CLR,,0.00,WeatherDisplay:10.37,2013-06-07 18:26:00,
2013-06-07 12:31:00,75.6,53.9,29.39,SW,225,0.0,0.7,47,0.00,CLR,,0.00,WeatherDisplay:10.37,2013-06-07 18:31:00,
2013-06-07 12:36:00,75.7,54.1,29.38,NNW,338,0.0,0.2,47,0.00,CLR,,0.00,WeatherDisplay:10.37,2013-06-07 18:36:00,
2013-06-07 12:41:00,76.3,55.1,29.38,WSW,248,0.0,0.0,48,0.00,CLR,,0.00,WeatherDisplay:10.37,2013-06-07 18:41:00,
2013-06-07 12:46:00,76.5,55.3,29.38,NW,315,0.0,0.0,48,0.00,CLR,,0.00,WeatherDisplay:10.37,2013-06-07 18:46:00,
2013-06-07 12:51:00,76.8,54.5,29.38,West,270,0.0,0.0,46,0.00,CLR,,0.00,WeatherDisplay:10.37,2013-06-07 18:51:00,
2013-06-07 12:57:00,76.8,54.5,29.37,WSW,248,0.0,0.0,46,0.00,CLR,,0.00,WeatherDisplay:10.37,2013-06-07 18:57:00,
2013-06-07 13:02:00,76.8,53.9,29.37,SSW,202,0.0,0.0,45,0.00,CLR,,0.00,WeatherDisplay:10.37,2013-06-07 19:02:00,
2013-06-07 13:07:00,77.9,54.8,29.37,WNW,292,0.0,0.0,45,0.00,CLR,,0.00,WeatherDisplay:10.37,2013-06-07 19:07:00,
2013-06-07 13:13:00,78.4,51.4,29.37,SW,225,0.0,0.0,39,0.00,CLR,,0.00,WeatherDisplay:10.37,2013-06-07 19:13:00,
2013-06-07 13:18:00,78.8,50.3,29.36,ENE,68,3.5,3.5,37,0.00,CLR,,0.00,WeatherDisplay:10.37,2013-06-07 19:18:00,
2013-06-07 13:23:00,79.7,51.1,29.36,SW,225,5.8,5.8,37,0.00,CLR,,0.00,WeatherDisplay:10.37,2013-06-07 19:23:00,
2013-06-07 13:28:00,79.9,52.0,29.36,WSW,248,4.6,4.6,38,0.00,CLR,,0.00,WeatherDisplay:10.37,2013-06-07 19:28:00,
2013-06-07 13:33:00,80.2,51.6,29.36,SW,225,2.3,3.0,37,0.00,CLR,,0.00,WeatherDisplay:10.37,2013-06-07 19:33:00,
2013-06-07 13:38:00,80.2,50.9,29.35,SW,225,1.5,2.1,36,0.00,CLR,,0.00,WeatherDisplay:10.37,2013-06-07 19:38:00,
2013-06-07 13:43:00,81.0,53.0,29.35,SSW,202,4.6,4.6,38,0.00,CLR,,0.00,WeatherDisplay:10.37,2013-06-07 19:43:00,
2013-06-07 13:50:00,81.3,51.8,29.35,East,90,3.5,3.5,36,0.00,CLR,,0.00,WeatherDisplay:10.37,2013-06-07 19:50:00,
2013-06-07 13:55:00,81.5,49.6,29.35,WSW,248,0.0,1.0,33,0.00,CLR,,0.00,WeatherDisplay:10.37,2013-06-07 19:55:00,
2013-06-07 14:00:00,82.2,54.8,29.34,ESE,112,5.8,5.8,39,0.00,CLR,,0.00,WeatherDisplay:10.37,2013-06-07 20:00:00,
2013-06-07 14:06:00,82.6,52.9,29.34,SSW,202,2.3,2.3,36,0.00,CLR,,0.00,WeatherDisplay:10.37,2013-06-07 20:06:00,
2013-06-07 14:11:00,82.4,52.0,29.34,SW,225,0.0,1.2,35,0.00,CLR,,0.00,WeatherDisplay:10.37,2013-06-07 20:11:00,
2013-06-07 14:16:00,82.2,51.8,29.34,WNW,292,2.3,2.3,35,0.00,CLR,,0.00,WeatherDisplay:10.37,2013-06-07 20:16:00,
2013-06-07 14:21:00,81.3,53.3,29.34,SSW,202,0.0,0.3,38,0.00,CLR,,0.00,WeatherDisplay:10.37,2013-06-07 20:21:00,
2013-06-07 14:26:00,80.8,53.5,29.34,SSW,202,0.0,0.5,39,0.00,CLR,,0.00,WeatherDisplay:10.37,2013-06-07 20:26:00,
2013-06-07 14:31:00,80.4,53.9,29.34,SSW,202,1.4,1.4,40,0.00,CLR,,0.00,WeatherDisplay:10.37,2013-06-07 20:31:00,
2013-06-07 14:36:00,80.1,53.6,29.28,WNW,292,0.0,0.3,40,0.00,CLR,,0.00,WeatherDisplay:10.37,2013-06-07 20:36:00,
2013-06-07 14:42:00,79.3,52.9,29.28,SSE,158,3.7,3.7,40,0.00,CLR,,0.00,WeatherDisplay:10.37,2013-06-07 20:42:00,
2013-06-07 14:47:00,78.8,51.7,29.28,East,90,3.5,3.5,39,0.00,CLR,,0.00,WeatherDisplay:10.37,2013-06-07 20:47:00,
2013-06-07 14:52:00,77.7,51.5,29.28,SSE,158,1.2,1.2,40,0.00,CLR,,0.00,WeatherDisplay:10.37,2013-06-07 20:52:00,
2013-06-07 14:57:00,77.7,51.5,29.26,SW,225,0.0,0.7,40,0.00,CLR,,0.00,WeatherDisplay:10.37,2013-06-07 20:57:00,
2013-06-07 15:02:00,76.6,50.5,29.26,SW,225,0.0,0.3,40,0.00,CLR,,0.00,WeatherDisplay:10.37,2013-06-07 21:02:00,
2013-06-07 15:07:00,76.6,51.2,29.26,South,180,0.0,0.0,41,0.00,CLR,,0.00,WeatherDisplay:10.37,2013-06-07 21:07:00,
2013-06-07 15:12:00,77.2,51.0,29.26,SSE,158,0.0,0.0,40,0.00,CLR,,0.00,WeatherDisplay:10.37,2013-06-07 21:12:00,
2013-06-07 15:18:00,77.2,51.7,29.29,SW,225,2.3,2.3,41,0.00,CLR,,0.00,WeatherDisplay:10.37,2013-06-07 21:18:00,
2013-06-07 15:23:00,77.4,51.8,29.29,SSE,158,0.0,0.3,41,0.00,CLR,,0.00,WeatherDisplay:10.37,2013-06-07 21:23:00,
2013-06-07 15:28:00,77.9,52.3,29.29,SSW,202,2.3,2.3,41,0.00,CLR,,0.00,WeatherDisplay:10.37,2013-06-07 21:28:00,
2013-06-07 15:33:00,78.1,53.1,29.29,West,270,0.0,0.3,42,0.00,CLR,,0.00,WeatherDisplay:10.37,2013-06-07 21:33:00,
2013-06-07 15:38:00,78.4,52.8,29.31,WNW,292,0.0,0.3,41,0.00,CLR,,0.00,WeatherDisplay:10.37,2013-06-07 21:38:00,
2013-06-07 15:43:00,78.6,52.3,29.31,ENE,68,0.0,0.0,40,0.00,CLR,,0.00,WeatherDisplay:10.37,2013-06-07 21:43:00,
2013-06-07 15:48:00,78.6,52.3,29.31,South,180,0.0,0.0,40,0.00,CLR,,0.00,WeatherDisplay:10.37,2013-06-07 21:48:00,
2013-06-07 15:53:00,78.6,52.3,29.31,SSW,202,0.0,0.0,40,0.00,CLR,,0.00,WeatherDisplay:10.37,2013-06-07 21:53:00,
2013-06-07 15:58:00,78.6,52.3,29.30,WSW,248,0.0,0.0,40,0.00,CLR,,0.00,WeatherDisplay:10.37,2013-06-07 21:58:00,
2013-06-07 16:04:00,78.8,53.1,29.30,WSW,248,0.0,0.1,41,0.00,CLR,,0.00,WeatherDisplay:10.37,2013-06-07 22:04:00,
2013-06-07 16:09:00,78.6,52.3,29.30,SSE,158,2.8,2.8,40,0.00,CLR,,0.00,WeatherDisplay:10.37,2013-06-07 22:09:00,
2013-06-07 16:15:00,78.6,52.9,29.30,NE,45,0.0,0.6,41,0.00,CLR,,0.00,WeatherDisplay:10.37,2013-06-07 22:15:00,
2013-06-07 16:20:00,79.2,52.8,29.26,NW,315,0.0,0.3,40,0.00,CLR,,0.00,WeatherDisplay:10.37,2013-06-07 22:20:00,
2013-06-07 16:25:00,79.0,51.9,29.26,SSE,158,0.0,0.3,39,0.00,CLR,,0.00,WeatherDisplay:10.37,2013-06-07 22:25:00,
2013-06-07 16:30:00,79.0,51.9,29.26,NE,45,0.0,0.0,39,0.00,CLR,,0.00,WeatherDisplay:10.37,2013-06-07 22:30:00,
2013-06-07 16:35:00,79.7,52.5,29.29,SW,225,3.0,3.0,39,0.00,CLR,,0.00,WeatherDisplay:10.37,2013-06-07 22:35:00,
2013-06-07 16:41:00,80.1,50.7,29.29,WNW,292,2.3,2.6,36,0.00,CLR,,0.00,WeatherDisplay:10.37,2013-06-07 22:41:00,
2013-06-07 16:46:00,80.1,51.4,29.29,SW,225,9.2,9.2,37,0.00,CLR,,0.00,WeatherDisplay:10.37,2013-06-07 22:46:00,
2013-06-07 16:51:00,80.1,50.7,29.29,SW,225,0.0,2.1,36,0.00,CLR,,0.00,WeatherDisplay:10.37,2013-06-07 22:51:00,
2013-06-07 16:57:00,80.1,50.7,29.29,WNW,292,7.1,7.1,36,0.00,CLR,,0.00,WeatherDisplay:10.37,2013-06-07 22:57:00,
2013-06-07 17:02:00,80.1,50.7,29.29,ESE,112,5.8,5.8,36,0.00,CLR,,0.00,WeatherDisplay:10.37,2013-06-07 23:02:00,
2013-06-07 17:07:00,80.1,51.4,29.29,NNW,338,1.2,3.2,37,0.00,CLR,,0.00,WeatherDisplay:10.37,2013-06-07 23:07:00,
2013-06-07 17:12:00,80.2,53.0,29.29,SE,135,2.3,2.3,39,0.00,CLR,,0.00,WeatherDisplay:10.37,2013-06-07 23:12:00,
2013-06-07 17:17:00,80.4,53.2,29.25,East,90,2.3,2.3,39,0.00,CLR,,0.00,WeatherDisplay:10.37,2013-06-07 23:17:00,
2013-06-07 17:22:00,80.2,52.3,29.25,WSW,248,2.3,2.3,38,0.00,CLR,,0.00,WeatherDisplay:10.37,2013-06-07 23:22:00,
2013-06-07 17:27:00,79.7,51.8,29.25,SSW,202,0.0,1.3,38,0.00,CLR,,0.00,WeatherDisplay:10.37,2013-06-07 23:27:00,
2013-06-07 17:32:00,79.3,51.5,29.25,SW,225,2.3,2.3,38,0.00,CLR,,0.00,WeatherDisplay:10.37,2013-06-07 23:32:00,
2013-06-07 17:37:00,79.2,51.4,29.23,WSW,248,4.6,4.6,38,0.00,CLR,,0.00,WeatherDisplay:10.37,2013-06-07 23:37:00,
2013-06-07 17:42:00,79.0,50.5,29.23,East,90,8.1,8.1,37,0.00,CLR,,0.00,WeatherDisplay:10.37,2013-06-07 23:42:00,
2013-06-07 17:47:00,78.8,50.3,29.23,SSE,158,2.3,2.3,37,0.00,CLR,,0.00,WeatherDisplay:10.37,2013-06-07 23:47:00,
2013-06-07 17:52:00,79.0,50.5,29.23,SSE,158,3.5,3.5,37,0.00,CLR,,0.00,WeatherDisplay:10.37,2013-06-07 23:52:00,
2013-06-07 17:57:00,79.0,51.2,29.26,SW,225,1.2,2.3,38,0.00,CLR,,0.00,WeatherDisplay:10.37,2013-06-07 23:57:00,
2013-06-07 18:03:00,78.6,50.2,29.26,SSE,158,4.6,4.6,37,0.00,CLR,,0.00,WeatherDisplay:10.37,2013-06-08 00:03:00,
2013-06-07 18:08:00,78.3,50.6,29.26,SW,225,2.3,2.3,38,0.00,CLR,,0.00,WeatherDisplay:10.37,2013-06-08 00:08:00,
2013-06-07 18:13:00,78.3,50.6,29.26,WSW,248,5.8,5.8,38,0.00,CLR,,0.00,WeatherDisplay:10.37,2013-06-08 00:13:00,
2013-06-07 18:18:00,77.9,50.2,29.24,SE,135,6.9,6.9,38,0.00,CLR,,0.00,WeatherDisplay:10.37,2013-06-08 00:18:00,
2013-06-07 18:23:00,78.3,49.8,29.24,SW,225,4.6,4.6,37,0.00,CLR,,0.00,WeatherDisplay:10.37,2013-06-08 00:23:00,
2013-06-07 18:29:00,78.8,51.0,29.24,SW,225,3.5,3.5,38,0.00,CLR,,0.00,WeatherDisplay:10.37,2013-06-08 00:29:00,
2013-06-07 18:34:00,79.0,49.7,29.24,WSW,248,3.5,3.5,36,0.00,CLR,,0.00,WeatherDisplay:10.37,2013-06-08 00:34:00,
2013-06-07 18:39:00,79.0,49.7,29.27,SW,225,4.6,4.6,36,0.00,CLR,,0.00,WeatherDisplay:10.37,2013-06-08 00:39:00,
2013-06-07 18:44:00,78.8,49.6,29.27,West,270,8.1,8.1,36,0.00,CLR,,0.00,WeatherDisplay:10.37,2013-06-08 00:44:00,
2013-06-07 18:49:00,78.6,49.4,29.27,WSW,248,0.0,3.2,36,0.00,CLR,,0.00,WeatherDisplay:10.37,2013-06-08 00:49:00,
2013-06-07 18:55:00,78.3,49.1,29.27,South,180,4.6,4.6,36,0.00,CLR,,0.00,WeatherDisplay:10.37,2013-06-08 00:55:00,
2013-06-07 19:00:00,77.5,48.5,29.27,South,180,5.8,5.8,36,0.00,CLR,,0.00,WeatherDisplay:10.37,2013-06-08 01:00:00,
2013-06-07 19:05:00,76.6,48.4,29.27,ESE,112,2.3,3.6,37,0.00,CLR,,0.00,WeatherDisplay:10.37,2013-06-08 01:05:00,
2013-06-07 19:10:00,76.5,48.2,29.27,SSE,158,6.9,6.9,37,0.00,CLR,,0.00,WeatherDisplay:10.37,2013-06-08 01:10:00,
2013-06-07 19:15:00,76.1,48.6,29.27,SW,225,3.5,3.5,38,0.00,CLR,,0.00,WeatherDisplay:10.37,2013-06-08 01:15:00,
2013-06-07 19:20:00,75.4,48.0,29.27,WNW,292,4.6,4.6,38,0.00,CLR,,0.00,WeatherDisplay:10.37,2013-06-08 01:20:00,
2013-06-07 19:26:00,75.2,47.8,29.27,WSW,248,0.0,2.3,38,0.00,CLR,,0.00,WeatherDisplay:10.37,2013-06-08 01:26:00,
2013-06-07 19:31:00,75.2,47.8,29.27,SSE,158,0.0,0.9,38,0.00,CLR,,0.00,WeatherDisplay:10.37,2013-06-08 01:31:00,
2013-06-07 19:36:00,74.8,47.5,29.25,SSW,202,0.0,0.6,38,0.00,CLR,,0.00,WeatherDisplay:10.37,2013-06-08 01:36:00,
2013-06-07 19:41:00,75.0,47.7,29.25,SSW,202,5.8,5.8,38,0.00,CLR,,0.00,WeatherDisplay:10.37,2013-06-08 01:41:00,
2013-06-07 19:46:00,74.8,48.2,29.25,SE,135,0.0,1.7,39,0.00,CLR,,0.00,WeatherDisplay:10.37,2013-06-08 01:46:00,
2013-06-07 19:51:00,75.2,48.5,29.25,South,180,0.0,1.2,39,0.00,CLR,,0.00,WeatherDisplay:10.37,2013-06-08 01:51:00,
2013-06-07 19:56:00,75.2,48.5,29.24,WSW,248,3.5,3.5,39,0.00,CLR,,0.00,WeatherDisplay:10.37,2013-06-08 01:56:00,
2013-06-07 20:02:00,74.8,48.2,29.24,SSE,158,5.8,5.8,39,0.00,CLR,,0.00,WeatherDisplay:10.37,2013-06-08 02:02:00,
2013-06-07 20:07:00,74.7,47.4,29.24,SSW,202,4.6,4.6,38,0.00,CLR,,0.00,WeatherDisplay:10.37,2013-06-08 02:07:00,
2013-06-07 20:12:00,73.9,48.1,29.24,SE,135,5.8,5.8,40,0.00,CLR,,0.00,WeatherDisplay:10.37,2013-06-08 02:12:00,
2013-06-07 20:17:00,73.4,47.6,29.24,SW,225,3.5,3.5,40,0.00,CLR,,0.00,WeatherDisplay:10.37,2013-06-08 02:17:00,
2013-06-07 20:23:00,72.7,47.0,29.24,SSW,202,2.3,2.3,40,0.00,CLR,,0.00,WeatherDisplay:10.37,2013-06-08 02:23:00,
2013-06-07 20:28:00,72.1,47.1,29.24,WSW,248,3.5,3.5,41,0.00,CLR,,0.00,WeatherDisplay:10.37,2013-06-08 02:28:00,
2013-06-07 20:33:00,71.6,46.0,29.24,WSW,248,2.3,2.3,40,0.00,CLR,,0.00,WeatherDisplay:10.37,2013-06-08 02:33:00,
2013-06-07 20:38:00,71.4,46.5,29.23,East,90,5.8,5.8,41,0.00,CLR,,0.00,WeatherDisplay:10.37,2013-06-08 02:38:00,
2013-06-07 20:43:00,70.3,45.5,29.23,NE,45,0.0,1.8,41,0.00,CLR,,0.00,WeatherDisplay:10.37,2013-06-08 02:43:00,
2013-06-07 20:48:00,70.0,45.2,29.23,WSW,248,5.8,5.8,41,0.00,CLR,,0.00,WeatherDisplay:10.37,2013-06-08 02:48:00,
2013-06-07 20:53:00,69.3,45.2,29.23,SSW,202,0.0,1.5,42,0.00,CLR,,0.00,WeatherDisplay:10.37,2013-06-08 02:53:00,
2013-06-07 20:59:00,68.9,44.9,29.23,SE,135,1.2,1.2,42,0.00,CLR,,0.00,WeatherDisplay:10.37,2013-06-08 02:59:00,
2013-06-07 21:04:00,68.4,44.4,29.23,SSE,158,2.3,2.3,42,0.00,CLR,,0.00,WeatherDisplay:10.37,2013-06-08 03:04:00,
2013-06-07 21:09:00,67.8,44.5,29.23,WSW,248,0.0,0.9,43,0.00,CLR,,0.00,WeatherDisplay:10.37,2013-06-08 03:09:00,
2013-06-07 21:14:00,67.5,44.2,29.23,ENE,68,2.3,2.3,43,0.00,CLR,,0.00,WeatherDisplay:10.37,2013-06-08 03:14:00,
2013-06-07 21:19:00,67.1,44.4,29.24,SSW,202,0.0,1.0,44,0.00,CLR,,0.00,WeatherDisplay:10.37,2013-06-08 03:19:00,
2013-06-07 21:24:00,66.9,43.7,29.24,SE,135,4.6,4.6,43,0.00,CLR,,0.00,WeatherDisplay:10.37,2013-06-08 03:24:00,
2013-06-07 21:29:00,66.4,43.8,29.24,SE,135,1.2,1.7,44,0.00,CLR,,0.00,WeatherDisplay:10.37,2013-06-08 03:29:00,
2013-06-07 21:34:00,66.2,43.6,29.24,West,270,0.0,0.7,44,0.00,CLR,,0.00,WeatherDisplay:10.37,2013-06-08 03:34:00,
2013-06-07 21:39:00,65.3,43.4,29.24,SSE,158,0.0,0.1,45,0.00,CLR,,0.00,WeatherDisplay:10.37,2013-06-08 03:39:00,
2013-06-07 21:44:00,65.1,43.2,29.24,ENE,68,0.0,0.0,45,0.00,CLR,,0.00,WeatherDisplay:10.37,2013-06-08 03:44:00,
2013-06-07 21:49:00,64.4,43.2,29.24,West,270,0.0,0.0,46,0.00,CLR,,0.00,WeatherDisplay:10.37,2013-06-08 03:49:00,
2013-06-07 21:54:00,64.0,42.8,29.24,East,90,0.0,0.0,46,0.00,CLR,,0.00,WeatherDisplay:10.37,2013-06-08 03:54:00,
2013-06-07 22:00:00,63.9,43.2,29.25,SSW,202,0.0,0.2,47,0.00,CLR,,0.00,WeatherDisplay:10.37,2013-06-08 04:00:00,
2013-06-07 22:01:00,63.9,43.2,29.25,SSW,202,0.0,0.2,47,0.00,CLR,,0.00,WeatherDisplay:10.37,2013-06-08 04:01:00,
2013-06-07 22:02:00,63.9,42.7,29.25,South,180,2.3,2.3,46,0.00,CLR,,0.00,WeatherDisplay:10.37,2013-06-08 04:02:00,
2013-06-07 22:04:00,63.9,42.7,29.25,SSE,158,2.3,2.3,46,0.00,CLR,,0.00,WeatherDisplay:10.37,2013-06-08 04:04:00,
2013-06-07 22:09:00,63.5,42.9,29.25,NE,45,4.6,4.6,47,0.00,CLR,,0.00,WeatherDisplay:10.37,2013-06-08 04:09:00,
2013-06-07 22:14:00,63.5,42.3,29.25,WSW,248,0.0,0.7,46,0.00,CLR,,0.00,WeatherDisplay:10.37,2013-06-08 04:14:00,
2013-06-07 22:19:00,63.1,42.6,29.27,SE,135,2.3,2.3,47,0.00,CLR,,0.00,WeatherDisplay:10.37,2013-06-08 04:19:00,
2013-06-07 22:24:00,63.1,42.6,29.27,WNW,292,0.0,0.5,47,0.00,CLR,,0.00,WeatherDisplay:10.37,2013-06-08 04:24:00,
2013-06-07 22:29:00,63.0,42.4,29.27,West,270,0.0,0.9,47,0.00,CLR,,0.00,WeatherDisplay:10.37,2013-06-08 04:29:00,
2013-06-07 22:34:00,63.0,42.4,29.27,WSW,248,0.0,0.3,47,0.00,CLR,,0.00,WeatherDisplay:10.37,2013-06-08 04:34:00,
2013-06-07 22:39:00,62.6,42.6,29.28,NW,315,0.0,0.0,48,0.00,CLR,,0.00,WeatherDisplay:10.37,2013-06-08 04:39:00,
2013-06-07 22:44:00,62.4,42.5,29.28,WNW,292,0.0,0.0,48,0.00,CLR,,0.00,WeatherDisplay:10.37,2013-06-08 04:44:00,
2013-06-07 22:49:00,62.1,42.1,29.28,SSW,202,0.0,0.0,48,0.00,CLR,,0.00,WeatherDisplay:10.37,2013-06-08 04:49:00,
2013-06-07 22:54:00,62.1,42.7,29.28,NNW,338,0.0,0.0,49,0.00,CLR,,0.00,WeatherDisplay:10.37,2013-06-08 04:54:00,
2013-06-07 22:59:00,61.7,42.3,29.29,NNW,338,0.0,0.0,49,0.00,CLR,,0.00,WeatherDisplay:10.37,2013-06-08 04:59:00,
2013-06-07 23:04:00,61.3,42.0,29.29,ENE,68,1.2,1.2,49,0.00,CLR,,0.00,WeatherDisplay:10.37,2013-06-08 05:04:00,
2013-06-07 23:10:00,60.8,42.0,29.29,East,90,2.3,2.3,50,0.00,CLR,,0.00,WeatherDisplay:10.37,2013-06-08 05:10:00,
2013-06-07 23:15:00,60.6,41.9,29.29,NE,45,0.0,0.8,50,0.00,CLR,,0.00,WeatherDisplay:10.37,2013-06-08 05:15:00,
2013-06-07 23:20:00,60.4,42.2,29.30,NE,45,2.3,2.3,51,0.00,CLR,,0.00,WeatherDisplay:10.37,2013-06-08 05:20:00,
2013-06-07 23:25:00,60.6,42.9,29.30,ENE,68,0.0,0.5,52,0.00,CLR,,0.00,WeatherDisplay:10.37,2013-06-08 05:25:00,
2013-06-07 23:30:00,60.6,42.9,29.30,West,270,0.0,0.6,52,0.00,CLR,,0.00,WeatherDisplay:10.37,2013-06-08 05:30:00,
2013-06-07 23:35:00,60.4,43.2,29.30,SE,135,0.0,0.1,53,0.00,CLR,,0.00,WeatherDisplay:10.37,2013-06-08 05:35:00,
2013-06-07 23:40:00,60.4,43.7,29.31,SSW,202,2.3,2.3,54,0.00,CLR,,0.00,WeatherDisplay:10.37,2013-06-08 05:40:00,
2013-06-07 23:45:00,60.6,43.9,29.31,SE,135,2.3,2.3,54,0.00,CLR,,0.00,WeatherDisplay:10.37,2013-06-08 05:45:00,
2013-06-07 23:50:00,60.8,43.6,29.31,SW,225,3.8,3.8,53,0.00,CLR,,0.00,WeatherDisplay:10.37,2013-06-08 05:50:00,
2013-06-07 23:55:00,61.0,43.7,29.31,SSE,158,0.0,2.6,53,0.00,CLR,,0.00,WeatherDisplay:10.37,2013-06-08 05:55:00,